Location: Newark
(48.0000°N, 67.0000°E)
Time: 05:11:05
(UTC+00:00)

DUCHIFAT 1 - Pass Details

Date: 07 April 2020
Orbit: 586 x 604 km, 97.9° (Epoch: 27 May)

Event Time Altitude Azimuth Distance (km) Brightness Sun altitude
Rises 21:29:13 0° 7° (N) 2,839 ? -29.2°
Reaches altitude 10° 21:31:29 10° 359° (N) 1,930 ? -29.0°
Enters shadow 21:33:38 26° 340° (NNW) 1,180 ? -28.8°
